2015-11-03, 07:00:04,VALID,918.187,VALID,0,VALID,101.46,VALID,103.036,VALID,20.6374,VALID,77,VALID,0,
2015-11-03, 07:01:04,VALID,918.187,VALID,0,VALID,101.452,VALID,106.474,VALID,20.6179,VALID,87,VALID,0,
2015-11-03, 07:02:04,VALID,918.176,VALID,0,VALID,101.437,VALID,106.582,VALID,20.6764,VALID,87,VALID,0,
2015-11-03, 07:03:04,VALID,918.176,VALID,0,VALID,101.445,VALID,105.507,VALID,20.6764,VALID,87,VALID,0,
2015-11-03, 07:04:04,VALID,918.214,VALID,0,VALID,101.43,VALID,103.681,VALID,20.7154,VALID,91,VALID,0,
2015-11-03, 07:05:04,VALID,918.254,VALID,0,VALID,101.452,VALID,102.391,VALID,20.7365,VALID,113,VALID,0,
2015-11-03, 07:06:04,VALID,918.256,VALID,0,VALID,101.437,VALID,101.639,VALID,20.7739,VALID,113,VALID,0,
2015-11-03, 07:07:04,VALID,918.273,VALID,0,VALID,101.437,VALID,102.177,VALID,20.7739,VALID,113,VALID,0,
2015-11-03, 07:08:04,VALID,918.266,VALID,0,VALID,101.475,VALID,103.573,VALID,20.7349,VALID,113,VALID,0,
2015-11-03, 07:09:04,VALID,918.302,VALID,0,VALID,101.491,VALID,102.714,VALID,20.7544,VALID,113,VALID,0,
2015-11-03, 07:10:04,VALID,918.299,VALID,0,VALID,101.491,VALID,99.2756,VALID,20.756,VALID,113,VALID,0,
2015-11-03, 07:14:04,VALID,918.305,VALID,0,VALID,101.513,VALID,99.5979,VALID,20.7966,VALID,113,VALID,0,
2015-11-03, 07:15:04,VALID,918.285,VALID,0,VALID,101.498,VALID,105.937,VALID,20.7755,VALID,114,VALID,0,
2015-11-03, 07:16:04,VALID,918.298,VALID,0,VALID,101.513,VALID,109.16,VALID,20.8145,VALID,113,VALID,0,
2015-11-03, 07:17:04,VALID,918.272,VALID,0,VALID,101.491,VALID,111.094,VALID,20.8324,VALID,113,VALID,0,
2015-11-03, 07:18:04,VALID,918.278,VALID,0,VALID,101.475,VALID,114.962,VALID,20.8925,VALID,113,VALID,0,
2015-11-03, 07:19:04,VALID,918.271,VALID,0,VALID,101.483,VALID,118.185,VALID,20.8925,VALID,113,VALID,0,
2015-11-03, 07:20:04,VALID,918.296,VALID,0,VALID,101.498,VALID,119.26,VALID,20.9511,VALID,113,VALID,0,
2015-11-03, 07:21:04,VALID,918.281,VALID,0,VALID,101.498,VALID,117.218,VALID,20.93,VALID,113,VALID,0,
2015-11-03, 07:22:04,VALID,918.312,VALID,0,VALID,101.536,VALID,118.615,VALID,20.93,VALID,113,VALID,0,
2015-11-03, 07:23:04,VALID,918.304,VALID,0,VALID,101.536,VALID,122.268,VALID,20.9885,VALID,113,VALID,0,
2015-11-03, 07:24:04,VALID,918.295,VALID,0,VALID,101.559,VALID,128.607,VALID,20.9495,VALID,113,VALID,0,
2015-11-03, 07:25:04,VALID,918.294,VALID,0,VALID,101.559,VALID,134.516,VALID,20.9885,VALID,113,VALID,0,
2015-11-03, 07:26:04,VALID,918.299,VALID,0,VALID,101.605,VALID,152.889,VALID,21.008,VALID,113,VALID,0,
2015-11-03, 07:27:04,VALID,918.276,VALID,0,VALID,101.552,VALID,160.302,VALID,21.125,VALID,113,VALID,0,
2015-11-03, 07:28:04,VALID,918.317,VALID,0,VALID,101.536,VALID,174.27,VALID,21.125,VALID,113,VALID,0,
2015-11-03, 07:29:04,VALID,918.297,VALID,0,VALID,101.536,VALID,181.361,VALID,21.1852,VALID,97,VALID,0,
2015-11-03, 07:30:04,VALID,918.336,VALID,0,VALID,101.491,VALID,177.708,VALID,21.3234,VALID,97,VALID,0,
2015-11-03, 07:31:04,VALID,918.359,VALID,0,VALID,101.521,VALID,174.055,VALID,21.3217,VALID,97,VALID,0,
2015-11-03, 07:32:04,VALID,918.359,VALID,0,VALID,101.521,VALID,178.03,VALID,21.4404,VALID,112,VALID,0,
2015-11-03, 07:33:04,VALID,918.387,VALID,0,VALID,101.498,VALID,180.501,VALID,21.4193,VALID,114,VALID,0,
2015-11-03, 07:34:04,VALID,918.391,VALID,0,VALID,101.613,VALID,185.551,VALID,21.4209,VALID,114,VALID,0,
2015-11-03, 07:35:04,VALID,918.408,VALID,0,VALID,101.635,VALID,192.427,VALID,21.4388,VALID,142,VALID,0,
2015-11-03, 07:36:04,VALID,918.393,VALID,0,VALID,101.727,VALID,209.188,VALID,21.4193,VALID,142,VALID,0,
2015-11-03, 07:37:04,VALID,918.417,VALID,0,VALID,101.757,VALID,206.717,VALID,21.4193,VALID,142,VALID,0,
2015-11-03, 07:38:04,VALID,918.418,VALID,0,VALID,101.803,VALID,205.857,VALID,21.4778,VALID,141,VALID,0,
2015-11-03, 07:39:04,VALID,918.436,VALID,0,VALID,101.78,VALID,213.7,VALID,21.5559,VALID,142,VALID,0,
2015-11-03, 07:40:04,VALID,918.419,VALID,0,VALID,101.895,VALID,222.618,VALID,21.5363,VALID,142,VALID,0,
2015-11-03, 07:41:04,VALID,918.443,VALID,0,VALID,101.879,VALID,218.858,VALID,21.6323,VALID,142,VALID,0,
2015-11-03, 07:42:04,VALID,918.441,VALID,0,VALID,102.055,VALID,217.031,VALID,21.6339,VALID,165,VALID,0,
2015-11-03, 07:43:04,VALID,918.43,VALID,0,VALID,102.161,VALID,232.932,VALID,21.6323,VALID,165,VALID,0,
2015-11-03, 07:44:04,VALID,918.407,VALID,0,VALID,102.222,VALID,245.181,VALID,21.7315,VALID,165,VALID,0,
2015-11-03, 07:45:04,VALID,918.42,VALID,0,VALID,102.314,VALID,253.454,VALID,21.7883,VALID,165,VALID,0,
2015-11-03, 07:46:04,VALID,918.421,VALID,0,VALID,102.512,VALID,256.892,VALID,21.7298,VALID,165,VALID,0,
2015-11-03, 07:47:04,VALID,918.406,VALID,0,VALID,102.558,VALID,261.834,VALID,21.7883,VALID,165,VALID,0,
2015-11-03, 07:48:04,VALID,918.414,VALID,0,VALID,102.512,VALID,264.628,VALID,21.8859,VALID,165,VALID,0,
2015-11-03, 07:49:04,VALID,918.404,VALID,0,VALID,102.451,VALID,253.991,VALID,21.9835,VALID,165,VALID,0,
2015-11-03, 07:50:04,VALID,918.395,VALID,0,VALID,102.161,VALID,235.833,VALID,22.1396,VALID,165,VALID,0,
2015-11-03, 07:51:04,VALID,918.394,VALID,0,VALID,101.658,VALID,241.957,VALID,22.2388,VALID,165,VALID,0,
2015-11-03, 07:52:04,VALID,918.4,VALID,0,VALID,100.85,VALID,264.413,VALID,22.3135,VALID,165,VALID,0,
2015-11-03, 07:53:04,VALID,918.388,VALID,0,VALID,99.7524,VALID,279.669,VALID,22.4323,VALID,165,VALID,0,
2015-11-03, 07:54:04,VALID,918.385,VALID,0,VALID,98.4107,VALID,276.876,VALID,22.4501,VALID,165,VALID,0,
2015-11-03, 07:55:04,VALID,918.438,VALID,0,VALID,98.1515,VALID,286.975,VALID,22.5689,VALID,170,VALID,0.152734,
2015-11-03, 07:56:04,VALID,918.413,VALID,0,VALID,97.3891,VALID,294.066,VALID,22.6079,VALID,173,VALID,0.776563,
2015-11-03, 07:57:04,VALID,918.444,VALID,0,VALID,97.0232,VALID,286.76,VALID,22.647,VALID,130,VALID,0,
2015-11-03, 07:58:04,VALID,918.461,VALID,0,VALID,97.412,VALID,289.554,VALID,22.7445,VALID,167,VALID,0.441016,
2015-11-03, 07:59:04,VALID,918.476,VALID,0,VALID,96.0855,VALID,287.513,VALID,22.6452,VALID,178,VALID,0.735937,
2015-11-03, 08:00:04,VALID,918.524,VALID,0,VALID,95.6967,VALID,274.19,VALID,22.647,VALID,154,VALID,0.789453,
2015-11-03, 08:01:04,VALID,918.542,VALID,0,VALID,95.7654,VALID,284.074,VALID,22.5867,VALID,169,VALID,0,
2015-11-03, 08:02:04,VALID,918.562,VALID,0,VALID,96.116,VALID,303.091,VALID,22.5867,VALID,184,VALID,0,
2015-11-03, 08:03:04,VALID,918.568,VALID,0,VALID,96.3295,VALID,273.545,VALID,22.6452,VALID,173,VALID,0,
2015-11-03, 08:04:04,VALID,918.584,VALID,0,VALID,96.6649,VALID,299.546,VALID,22.7233,VALID,176,VALID,0,
2015-11-03, 08:05:04,VALID,918.611,VALID,0,VALID,96.825,VALID,310.183,VALID,22.8404,VALID,197,VALID,0.236719,
2015-11-03, 08:06:04,VALID,918.597,VALID,0,VALID,95.3918,VALID,270.859,VALID,22.8421,VALID,139,VALID,0.809766,
2015-11-03, 08:07:04,VALID,918.635,VALID,0,VALID,96.0245,VALID,270.644,VALID,22.8031,VALID,171,VALID,0,
2015-11-03, 08:08:04,VALID,918.634,VALID,0,VALID,95.9864,VALID,296.752,VALID,22.8421,VALID,156,VALID,0,
2015-11-03, 08:09:04,VALID,918.679,VALID,0,VALID,95.3613,VALID,252.702,VALID,22.8812,VALID,182,VALID,0,
2015-11-03, 08:10:04,VALID,918.688,VALID,0,VALID,93.303,VALID,259.685,VALID,22.8404,VALID,140,VALID,0.279297,
2015-11-03, 08:11:04,VALID,918.701,VALID,0,VALID,92.6779,VALID,352.407,VALID,22.8209,VALID,138,VALID,0,
2015-11-03, 08:12:04,VALID,918.685,VALID,0,VALID,95.3994,VALID,346.175,VALID,22.9787,VALID,183,VALID,0.00429688,
2015-11-03, 08:13:04,VALID,918.718,VALID,0,VALID,93.3716,VALID,332.853,VALID,23.0356,VALID,188,VALID,0,
2015-11-03, 08:14:04,VALID,918.706,VALID,0,VALID,90.0478,VALID,344.134,VALID,23.1544,VALID,204,VALID,0,
2015-11-03, 08:15:04,VALID,918.731,VALID,0,VALID,88.3401,VALID,320.067,VALID,23.1331,VALID,166,VALID,0,
2015-11-03, 08:16:04,VALID,918.686,VALID,0,VALID,91.1532,VALID,375.292,VALID,23.0941,VALID,183,VALID,0,
2015-11-03, 08:17:04,VALID,918.706,VALID,0,VALID,94.5761,VALID,391.945,VALID,23.1722,VALID,150,VALID,0,
2015-11-03, 08:18:04,VALID,918.725,VALID,0,VALID,89.9106,VALID,390.334,VALID,23.3088,VALID,136,VALID,0,
2015-11-03, 08:19:04,VALID,918.709,VALID,0,VALID,91.0007,VALID,287.727,VALID,23.3283,VALID,115,VALID,0.01875,
2015-11-03, 08:20:04,VALID,918.698,VALID,0,VALID,87.8904,VALID,325.976,VALID,23.3674,VALID,157,VALID,0,
2015-11-03, 08:21:04,VALID,918.722,VALID,0,VALID,86.4343,VALID,388.077,VALID,23.4064,VALID,142,VALID,0,
2015-11-03, 08:22:04,VALID,918.733,VALID,0,VALID,86.8383,VALID,394.524,VALID,23.4454,VALID,201,VALID,0,
2015-11-03, 08:23:04,VALID,918.735,VALID,0,VALID,85.245,VALID,396.673,VALID,23.5626,VALID,172,VALID,0,
2015-11-03, 08:24:04,VALID,918.734,VALID,0,VALID,84.8791,VALID,276.231,VALID,23.6584,VALID,113,VALID,0.230078,
2015-11-03, 08:25:04,VALID,918.73,VALID,0,VALID,84.0787,VALID,385.391,VALID,23.6992,VALID,120,VALID,0,
2015-11-03, 08:26:04,VALID,918.733,VALID,0,VALID,84.9096,VALID,393.664,VALID,23.7773,VALID,183,VALID,0.0453125,
2015-11-03, 08:27:04,VALID,918.759,VALID,0,VALID,81.1818,VALID,323.505,VALID,23.8536,VALID,202,VALID,0,
2015-11-03, 08:28:04,VALID,918.777,VALID,0,VALID,81.723,VALID,383.35,VALID,23.8926,VALID,169,VALID,0,
2015-11-03, 08:29:04,VALID,918.796,VALID,0,VALID,83.4764,VALID,274.942,VALID,23.9139,VALID,146,VALID,0,
2015-11-03, 08:30:04,VALID,918.817,VALID,0,VALID,82.1194,VALID,270,VALID,23.8926,VALID,164,VALID,0,
2015-11-03, 08:31:04,VALID,918.821,VALID,0,VALID,81.784,VALID,336.828,VALID,23.9316,VALID,165,VALID,0,
2015-11-03, 08:32:04,VALID,918.813,VALID,0,VALID,81.8069,VALID,420.31,VALID,23.795,VALID,145,VALID,0,
2015-11-03, 08:33:04,VALID,918.839,VALID,0,VALID,82.2185,VALID,405.375,VALID,23.6193,VALID,143,VALID,0,
2015-11-03, 08:34:04,VALID,918.814,VALID,0,VALID,83.1943,VALID,397.425,VALID,23.559,VALID,138,VALID,0,
2015-11-03, 08:35:04,VALID,918.796,VALID,0,VALID,81.967,VALID,396.243,VALID,23.5998,VALID,111,VALID,0,
2015-11-03, 08:36:04,VALID,918.813,VALID,0,VALID,82.8132,VALID,394.846,VALID,23.6974,VALID,112,VALID,0,
2015-11-03, 08:37:04,VALID,918.803,VALID,0,VALID,82.7064,VALID,401.508,VALID,23.8731,VALID,161,VALID,0,
2015-11-03, 08:38:04,VALID,918.791,VALID,0,VALID,81.7688,VALID,358.531,VALID,24.0292,VALID,207,VALID,0,
2015-11-03, 08:39:04,VALID,918.794,VALID,0,VALID,81.1284,VALID,390.334,VALID,24.1854,VALID,213,VALID,0,
2015-11-03, 08:40:04,VALID,918.775,VALID,0,VALID,78.9786,VALID,405.161,VALID,24.2635,VALID,211,VALID,0,
2015-11-03, 08:41:04,VALID,918.816,VALID,0,VALID,78.3535,VALID,394.416,VALID,24.3221,VALID,188,VALID,1.92695,
2015-11-03, 08:42:04,VALID,918.784,VALID,0,VALID,78.4678,VALID,415.367,VALID,24.3221,VALID,162,VALID,0,
2015-11-03, 08:43:04,VALID,918.759,VALID,0,VALID,77.736,VALID,429.013,VALID,24.3611,VALID,184,VALID,0,
2015-11-03, 08:44:04,VALID,918.737,VALID,0,VALID,78.3763,VALID,426.756,VALID,24.4178,VALID,181,VALID,0,
2015-11-03, 08:45:04,VALID,918.731,VALID,0,VALID,78.2162,VALID,431.699,VALID,24.5759,VALID,180,VALID,0,
2015-11-03, 08:46:04,VALID,918.708,VALID,0,VALID,77.6902,VALID,450.393,VALID,24.7711,VALID,174,VALID,0,
2015-11-03, 08:47:04,VALID,918.72,VALID,0,VALID,75.5404,VALID,464.79,VALID,24.7497,VALID,193,VALID,1.59023,
2015-11-03, 08:48:04,VALID,918.727,VALID,0,VALID,76.7297,VALID,453.831,VALID,24.7888,VALID,173,VALID,0.00195313,
2015-11-03, 08:49:04,VALID,918.724,VALID,0,VALID,77.5225,VALID,456.088,VALID,24.6521,VALID,174,VALID,0.29375,
2015-11-03, 08:50:04,VALID,918.727,VALID,0,VALID,77.3777,VALID,456.41,VALID,24.5954,VALID,207,VALID,0.00195313,
2015-11-03, 08:51:04,VALID,918.794,VALID,0,VALID,76.3104,VALID,439.864,VALID,24.7144,VALID,191,VALID,0,
2015-11-03, 08:52:04,VALID,918.788,VALID,0,VALID,76.4857,VALID,433.31,VALID,24.654,VALID,176,VALID,0,
2015-11-03, 08:53:04,VALID,918.781,VALID,0,VALID,77.2633,VALID,435.889,VALID,24.5368,VALID,182,VALID,0.00585938,
2015-11-03, 08:54:04,VALID,918.781,VALID,0,VALID,74.3664,VALID,461.245,VALID,24.5759,VALID,184,VALID,1.62656,
2015-11-03, 08:55:04,VALID,918.799,VALID,0,VALID,75.4871,VALID,456.84,VALID,24.654,VALID,195,VALID,0.185937,
2015-11-03, 08:56:04,VALID,918.785,VALID,0,VALID,75.2279,VALID,467.584,VALID,24.7711,VALID,212,VALID,0,
2015-11-03, 08:57:04,VALID,918.782,VALID,0,VALID,75.7386,VALID,465.65,VALID,24.7711,VALID,187,VALID,0.00078125,
2015-11-03, 08:58:04,VALID,918.768,VALID,0,VALID,73.7794,VALID,462.642,VALID,24.8902,VALID,194,VALID,0.287891,
2015-11-03, 08:59:04,VALID,918.793,VALID,0,VALID,74.5418,VALID,444.377,VALID,24.9664,VALID,178,VALID,0.875391,
2015-11-03, 09:00:04,VALID,918.785,VALID,0,VALID,74.092,VALID,449.104,VALID,24.8102,VALID,170,VALID,0.0769531,
2015-11-03, 09:01:04,VALID,918.763,VALID,0,VALID,73.5888,VALID,464.898,VALID,24.6345,VALID,169,VALID,0,
2015-11-03, 09:02:04,VALID,918.764,VALID,0,VALID,74.8162,VALID,469.41,VALID,24.654,VALID,196,VALID,0.124219,
2015-11-03, 09:03:04,VALID,918.769,VALID,0,VALID,75.7844,VALID,465.22,VALID,24.8297,VALID,192,VALID,0.626562,
2015-11-03, 09:04:04,VALID,918.742,VALID,0,VALID,73.0018,VALID,478.65,VALID,24.9078,VALID,188,VALID,1.89297,
2015-11-03, 09:05:04,VALID,918.718,VALID,0,VALID,72.796,VALID,486.386,VALID,24.9664,VALID,188,VALID,1.53281,
2015-11-03, 09:06:04,VALID,918.75,VALID,0,VALID,73.0018,VALID,489.394,VALID,25.0055,VALID,189,VALID,0.530859,
2015-11-03, 09:07:04,VALID,918.731,VALID,0,VALID,74.0691,VALID,481.551,VALID,25.0055,VALID,159,VALID,0.0195313,
2015-11-03, 09:08:04,VALID,918.734,VALID,0,VALID,72.3996,VALID,507.659,VALID,25.0231,VALID,171,VALID,1.01016,
2015-11-03, 09:09:04,VALID,918.725,VALID,0,VALID,71.4085,VALID,536.239,VALID,24.9255,VALID,168,VALID,0.673437,
2015-11-03, 09:10:04,VALID,918.744,VALID,0,VALID,72.9866,VALID,537.206,VALID,25.0231,VALID,166,VALID,0,
2015-11-03, 09:11:04,VALID,918.736,VALID,0,VALID,71.4314,VALID,556.33,VALID,25.1402,VALID,176,VALID,0,
2015-11-03, 09:12:04,VALID,918.715,VALID,0,VALID,69.7466,VALID,559.876,VALID,25.3374,VALID,190,VALID,0,
2015-11-03, 09:13:04,VALID,918.724,VALID,0,VALID,69.678,VALID,570.62,VALID,25.4937,VALID,189,VALID,0,
2015-11-03, 09:14:04,VALID,918.723,VALID,0,VALID,67.5816,VALID,579.645,VALID,25.5113,VALID,150,VALID,0,
2015-11-03, 09:15:04,VALID,918.709,VALID,0,VALID,67.3757,VALID,589.53,VALID,25.5523,VALID,192,VALID,0.537109,
2015-11-03, 09:16:04,VALID,918.7,VALID,0,VALID,68.9004,VALID,598.447,VALID,25.5894,VALID,162,VALID,0.003125,
2015-11-03, 09:17:04,VALID,918.692,VALID,0,VALID,68.9919,VALID,613.059,VALID,25.7085,VALID,191,VALID,0.0683594,
2015-11-03, 09:18:04,VALID,918.676,VALID,0,VALID,69.2892,VALID,558.264,VALID,25.8823,VALID,176,VALID,0,
2015-11-03, 09:19:04,VALID,918.663,VALID,0,VALID,67.7341,VALID,538.71,VALID,26.0796,VALID,176,VALID,0,
2015-11-03, 09:20:04,VALID,918.63,VALID,0,VALID,69.5027,VALID,548.487,VALID,26.2534,VALID,175,VALID,0.0566406,
2015-11-03, 09:21:04,VALID,918.623,VALID,0,VALID,66.9946,VALID,551.173,VALID,26.312,VALID,160,VALID,0.0183594,
2015-11-03, 09:22:04,VALID,918.581,VALID,0,VALID,68.0619,VALID,515.288,VALID,26.312,VALID,220,VALID,0.0210938,
2015-11-03, 09:23:04,VALID,918.608,VALID,0,VALID,68.0542,VALID,514.858,VALID,26.1948,VALID,109,VALID,0.761719,
2015-11-03, 09:24:04,VALID,918.577,VALID,0,VALID,70.3108,VALID,506.048,VALID,26.1948,VALID,101,VALID,0,
2015-11-03, 09:25:04,VALID,918.605,VALID,0,VALID,66.6973,VALID,468.766,VALID,26.1342,VALID,170,VALID,0.592188,
2015-11-03, 09:26:04,VALID,918.538,VALID,0,VALID,68.2296,VALID,480.584,VALID,25.98,VALID,218,VALID,0.251563,
2015-11-03, 09:27:04,VALID,918.576,VALID,0,VALID,70.2117,VALID,522.809,VALID,26.019,VALID,171,VALID,0.496094,
2015-11-03, 09:28:04,VALID,918.583,VALID,0,VALID,67.2233,VALID,515.18,VALID,25.9975,VALID,190,VALID,1.11406,
2015-11-03, 09:29:04,VALID,918.578,VALID,0,VALID,68.748,VALID,521.197,VALID,25.9995,VALID,179,VALID,0.169922,
2015-11-03, 09:30:04,VALID,918.594,VALID,0,VALID,68.0847,VALID,550.314,VALID,25.8628,VALID,184,VALID,0.759766,
2015-11-03, 09:31:04,VALID,918.601,VALID,0,VALID,68.0237,VALID,546.983,VALID,25.8628,VALID,186,VALID,0.547656,
2015-11-03, 09:32:04,VALID,918.624,VALID,0,VALID,70.509,VALID,475.212,VALID,25.8237,VALID,149,VALID,0.331641,
2015-11-03, 09:33:04,VALID,918.628,VALID,0,VALID,72.3615,VALID,598.77,VALID,25.7456,VALID,114,VALID,0.181641,
2015-11-03, 09:34:04,VALID,918.569,VALID,0,VALID,71.0807,VALID,590.497,VALID,25.7847,VALID,78,VALID,0,
2015-11-03, 09:35:04,VALID,918.613,VALID,0,VALID,70.5166,VALID,596.728,VALID,25.9214,VALID,123,VALID,0,
2015-11-03, 09:36:04,VALID,918.588,VALID,0,VALID,69.5332,VALID,608.117,VALID,26.0757,VALID,123,VALID,0,
2015-11-03, 09:37:04,VALID,918.602,VALID,0,VALID,68.7251,VALID,621.332,VALID,26.3686,VALID,123,VALID,0,
2015-11-03, 09:38:04,VALID,918.602,VALID,0,VALID,68.4125,VALID,624.233,VALID,26.5464,VALID,123,VALID,0,
2015-11-03, 09:39:04,VALID,918.606,VALID,0,VALID,67.8179,VALID,611.877,VALID,26.564,VALID,146,VALID,0.555469,
2015-11-03, 09:40:04,VALID,918.553,VALID,0,VALID,66.0112,VALID,618.646,VALID,26.4683,VALID,142,VALID,0,
2015-11-03, 09:41:04,VALID,918.58,VALID,0,VALID,67.8941,VALID,493.907,VALID,26.603,VALID,151,VALID,0.249219,
2015-11-03, 09:42:04,VALID,918.545,VALID,0,VALID,64.9058,VALID,377.011,VALID,26.5269,VALID,172,VALID,0.0871094,
2015-11-03, 09:43:04,VALID,918.582,VALID,0,VALID,66.6591,VALID,400.218,VALID,26.5074,VALID,177,VALID,0,
2015-11-03, 09:44:04,VALID,918.525,VALID,0,VALID,66.6591,VALID,391.623,VALID,26.5485,VALID,183,VALID,0,
2015-11-03, 09:45:04,VALID,918.523,VALID,0,VALID,66.1636,VALID,387.54,VALID,26.4703,VALID,174,VALID,0.0296875,
2015-11-03, 09:46:04,VALID,918.518,VALID,0,VALID,65.8968,VALID,396.243,VALID,26.1578,VALID,171,VALID,0,
2015-11-03, 09:47:04,VALID,918.507,VALID,0,VALID,67.5435,VALID,428.26,VALID,26.0581,VALID,172,VALID,0,
2015-11-03, 09:48:04,VALID,918.504,VALID,0,VALID,68.5574,VALID,448.244,VALID,26.1753,VALID,171,VALID,0,
2015-11-03, 09:49:04,VALID,918.51,VALID,0,VALID,69.5256,VALID,530.007,VALID,26.2339,VALID,96,VALID,0.0808594,
2015-11-03, 09:50:04,VALID,918.504,VALID,0,VALID,69.3197,VALID,688.053,VALID,26.4488,VALID,43,VALID,0,
2015-11-03, 09:51:04,VALID,918.519,VALID,0,VALID,67.0708,VALID,670.325,VALID,26.6636,VALID,40,VALID,0,
2015-11-03, 09:52:04,VALID,918.488,VALID,0,VALID,64.2044,VALID,521.197,VALID,26.6657,VALID,38,VALID,0,
2015-11-03, 09:53:04,VALID,918.489,VALID,0,VALID,65.2412,VALID,699.012,VALID,26.6832,VALID,52,VALID,0,
2015-11-03, 09:54:04,VALID,918.491,VALID,0,VALID,66.2475,VALID,434.599,VALID,26.8199,VALID,52,VALID,0,
2015-11-03, 09:55:04,VALID,918.48,VALID,0,VALID,66.4228,VALID,433.847,VALID,26.9372,VALID,90,VALID,0,
2015-11-03, 09:56:04,VALID,918.451,VALID,0,VALID,64.1663,VALID,454.584,VALID,26.7809,VALID,165,VALID,0.348828,
2015-11-03, 09:57:04,VALID,918.451,VALID,0,VALID,66.156,VALID,567.719,VALID,26.4292,VALID,180,VALID,1.58398,
2015-11-03, 09:58:04,VALID,918.459,VALID,0,VALID,67.7645,VALID,627.241,VALID,26.4292,VALID,182,VALID,1.54648,
2015-11-03, 09:59:04,VALID,918.457,VALID,0,VALID,66.2094,VALID,865.653,VALID,26.5074,VALID,188,VALID,1.0082,
2015-11-03, 10:00:04,VALID,918.504,VALID,0,VALID,65.1192,VALID,887.249,VALID,26.6636,VALID,200,VALID,0.0996094,
2015-11-03, 10:01:04,VALID,918.473,VALID,0,VALID,65.2641,VALID,887.894,VALID,26.6657,VALID,204,VALID,0,
2015-11-03, 10:02:04,VALID,918.491,VALID,0,VALID,64.1129,VALID,894.555,VALID,26.8395,VALID,204,VALID,0,
2015-11-03, 10:03:04,VALID,918.467,VALID,0,VALID,64.6085,VALID,889.613,VALID,27.0955,VALID,65,VALID,0.515625,
2015-11-03, 10:04:04,VALID,918.473,VALID,0,VALID,63.9071,VALID,833.421,VALID,26.9958,VALID,110,VALID,0.2125,
2015-11-03, 10:05:04,VALID,918.492,VALID,0,VALID,65.5004,VALID,508.626,VALID,26.8004,VALID,51,VALID,0.633984,
2015-11-03, 10:06:04,VALID,918.478,VALID,0,VALID,65.2793,VALID,491.543,VALID,26.859,VALID,42,VALID,0,
2015-11-03, 10:07:04,VALID,918.471,VALID,0,VALID,64.2044,VALID,480.907,VALID,26.9958,VALID,207,VALID,1.3332,
2015-11-03, 10:08:04,VALID,918.491,VALID,0,VALID,64.2883,VALID,792.056,VALID,26.9176,VALID,204,VALID,0,
2015-11-03, 10:09:04,VALID,918.487,VALID,0,VALID,66.1712,VALID,715.88,VALID,27.0544,VALID,226,VALID,0.633594,
2015-11-03, 10:10:04,VALID,918.504,VALID,0,VALID,66.4076,VALID,597.803,VALID,27.1541,VALID,239,VALID,0.3125,
2015-11-03, 10:11:04,VALID,918.491,VALID,0,VALID,64.799,VALID,504.866,VALID,26.9958,VALID,234,VALID,0.071875,
2015-11-03, 10:12:04,VALID,918.496,VALID,0,VALID,65.6833,VALID,515.073,VALID,26.8981,VALID,234,VALID,0,
2015-11-03, 10:13:04,VALID,918.531,VALID,0,VALID,66.4914,VALID,536.991,VALID,26.9762,VALID,234,VALID,0,
2015-11-03, 10:14:04,VALID,918.504,VALID,0,VALID,67.8179,VALID,542.578,VALID,26.9958,VALID,234,VALID,0.245703,
2015-11-03, 10:15:04,VALID,918.504,VALID,0,VALID,67.8865,VALID,531.511,VALID,26.7027,VALID,233,VALID,1.16953,
2015-11-03, 10:16:04,VALID,918.465,VALID,0,VALID,67.9551,VALID,447.922,VALID,26.5485,VALID,244,VALID,0,
2015-11-03, 10:17:04,VALID,918.456,VALID,0,VALID,67.7188,VALID,417.409,VALID,26.4878,VALID,268,VALID,0,
2015-11-03, 10:18:04,VALID,918.425,VALID,0,VALID,69.1444,VALID,412.467,VALID,26.5074,VALID,257,VALID,0.0269531,
2015-11-03, 10:19:04,VALID,918.439,VALID,0,VALID,67.9856,VALID,417.409,VALID,26.3706,VALID,248,VALID,0.164844,
2015-11-03, 10:20:04,VALID,918.434,VALID,0,VALID,68.7327,VALID,437.071,VALID,26.2319,VALID,254,VALID,0,
2015-11-03, 10:21:04,VALID,918.449,VALID,0,VALID,69.4417,VALID,442.872,VALID,26.2359,VALID,260,VALID,0,
2015-11-03, 10:22:04,VALID,918.456,VALID,0,VALID,67.391,VALID,416.979,VALID,26.2339,VALID,260,VALID,0,
2015-11-03, 10:23:04,VALID,918.43,VALID,0,VALID,67.3757,VALID,392.053,VALID,26.2339,VALID,245,VALID,0,
2015-11-03, 10:24:04,VALID,918.415,VALID,0,VALID,67.3453,VALID,381.416,VALID,26.4292,VALID,244,VALID,0,
2015-11-03, 10:25:04,VALID,918.435,VALID,0,VALID,67.1318,VALID,373.895,VALID,26.3316,VALID,244,VALID,0,
2015-11-03, 10:26:04,VALID,918.419,VALID,0,VALID,68.3973,VALID,368.093,VALID,26.4488,VALID,259,VALID,0,
2015-11-03, 10:27:04,VALID,918.395,VALID,0,VALID,67.0708,VALID,333.497,VALID,26.5269,VALID,321,VALID,0,
2015-11-03, 10:28:04,VALID,918.363,VALID,0,VALID,66.6439,VALID,301.372,VALID,26.4683,VALID,318,VALID,0,
2015-11-03, 10:29:04,VALID,918.408,VALID,0,VALID,67.6121,VALID,281.496,VALID,26.3902,VALID,319,VALID,0,
2015-11-03, 10:30:04,VALID,918.395,VALID,0,VALID,67.5206,VALID,272.363,VALID,26.4292,VALID,319,VALID,0,
2015-11-03, 10:31:04,VALID,918.372,VALID,0,VALID,67.8484,VALID,268.603,VALID,26.4292,VALID,278,VALID,0,
2015-11-03, 10:32:04,VALID,918.368,VALID,0,VALID,70.0058,VALID,270.429,VALID,26.3706,VALID,278,VALID,0,
2015-11-03, 10:33:04,VALID,918.363,VALID,0,VALID,71.0502,VALID,275.479,VALID,26.4292,VALID,278,VALID,0,
2015-11-03, 10:34:04,VALID,918.373,VALID,0,VALID,70.7682,VALID,292.885,VALID,26.3902,VALID,280,VALID,0,
2015-11-03, 10:35:04,VALID,918.358,VALID,0,VALID,70.8673,VALID,351.547,VALID,26.4898,VALID,280,VALID,0,
2015-11-03, 10:36:04,VALID,918.345,VALID,0,VALID,70.6233,VALID,406.128,VALID,26.5289,VALID,279,VALID,0,
2015-11-03, 10:37:04,VALID,918.344,VALID,0,VALID,69.3731,VALID,462.534,VALID,26.3706,VALID,278,VALID,0,
2015-11-03, 10:38:04,VALID,918.31,VALID,0,VALID,70.5928,VALID,450.716,VALID,26.2925,VALID,278,VALID,0,
2015-11-03, 10:39:04,VALID,918.324,VALID,0,VALID,70.448,VALID,463.179,VALID,26.314,VALID,278,VALID,0,
2015-11-03, 10:40:04,VALID,918.307,VALID,0,VALID,71.2866,VALID,432.128,VALID,26.314,VALID,278,VALID,0,
2015-11-03, 10:41:04,VALID,918.301,VALID,0,VALID,72.7579,VALID,312.224,VALID,26.3316,VALID,278,VALID,0,
2015-11-03, 10:42:04,VALID,918.288,VALID,0,VALID,72.6588,VALID,293.099,VALID,26.2925,VALID,278,VALID,0,
2015-11-03, 10:43:04,VALID,918.282,VALID,0,VALID,70.8749,VALID,271.934,VALID,26.3902,VALID,280,VALID,0,
2015-11-03, 10:44:04,VALID,918.266,VALID,0,VALID,69.5713,VALID,236.048,VALID,26.4468,VALID,280,VALID,0,
2015-11-03, 10:45:04,VALID,918.262,VALID,0,VALID,69.335,VALID,232.61,VALID,26.4878,VALID,278,VALID,0,
2015-11-03, 10:46:04,VALID,918.247,VALID,0,VALID,70.9816,VALID,230.891,VALID,26.4663,VALID,278,VALID,0,
2015-11-03, 10:47:04,VALID,918.242,VALID,0,VALID,69.4112,VALID,224.23,VALID,26.4878,VALID,278,VALID,0,